Weather in Prikaspiyskiy

Russia / Astrakhan Oblast     46°13′22″N   47°11′13″E
temp.,
°C
wind,
m/s
gust,
m/s
humid.,
%
clouds,
%
prec.,
mm/h
press.,
hPa
HPBL,
m
5 august, thu
thu501:00+30nne4526100 0.0 101191
04:00+28n41043100 0.0 1011281
07:00+28nne6104857 0.0 1012455
10:00+32ne783730 0.0 1013844
13:00+37nne65265 0.0 10121941
16:00+37n7523100 0.0 10112754
19:00+33ne672790 0.4 1012829
22:00+28nne2346100 0.7 101264
6 august, fri
fri601:00+28nne6122666 0.0 1012381
04:00+26ne5112918 0.0 1012266
07:00+26ne5103229 0.0 1012303
10:00+32ene66235 0.0 10121137
13:00+36ene44185 0.0 10111784
16:00+37ene44160 0.0 10092525
19:00+36ene66180 0.0 10092023
22:00+29ese46360 0.0 1010132
7 august, sat
sat701:00+27e46360 0.0 1010109
04:00+27e613320 0.0 1009298
07:00+27ene815254 0.0 1010481
10:00+34ese911216 0.0 10091067
13:00+38ese99175 0.0 10081699
16:00+38ese991732 0.0 10081678
19:00+35ese911210 0.0 1007851
22:00+30e715250 0.0 1008376
8 august, sun
sun801:00+28e7163029 0.0 1008341
04:00+28e7173698 0.0 1008354
07:00+29e8174385 0.0 1008454
10:00+37se101420100 0.0 10081257
13:00+39se9111895 0.0 10081219
16:00+38se10131874 0.0 10071291
19:00+35sse812255 0.0 1007745
22:00+29sse510495 0.0 1009272
9 august, mon
mon901:00+28sse465797 0.0 1009119
04:00+28n115330 0.0 100911
07:00+30nw114882 0.0 100946
10:00+36nnw44225 0.0 1010954
13:00+39nw33205 0.0 10092439
16:00+40wnw33190 0.0 10083107
19:00+39wnw23213 0.2 1008637
22:00+33sw453219 0.8 100983